DROR 1

Last updated on Sun Apr 12 2026 00:02:57 GMT+0000 (Coordinated Universal Time)

1 64784U 25148A 26101.37728309 -.00000033 00000+0 00000+0 0 9993 2 64784 0.0143 273.0410 0003569 95.4301 322.9434 1.00272524 2621
UTC large
Height (km)
Speed (km/s)
/
Latitude / Longitude
Inclination (degrees)
Orbital Period (minutes)
Azimuth
Elevation
Range (km)
Doppler Factor

Next 0 passes for location: London (51.5072 / 0.1276)

Sorry there are no passes over London.
DROR 1